Tracking 20241 objects as of 28-Jan-2020
HD Live streaming from Space Station
objects crossing your sky now

ORBCOMM FM 32

Track ORBCOMM FM 32 now!
10-day predictions
ORBCOMM FM 32 is classified as:


NORAD ID: 25982
Int'l Code: 1999-065C
Perigee: 786.3 km
Apogee: 797.7 km
Inclination: 45.0 °
Period: 100.6 minutes
Semi major axis: 7162 km
RCS: 0.8421 m2 (medium)
Launch date: December 4, 1999
Source: ORBCOMM (ORB)
Launch site: AIR FORCE EASTERN TEST RANGE (AFETR)
aabbcc
Your satellite tracking list
Your tracking list is empty




NASA's NSSDC Master Catalog

Two Line Element Set (TLE):
1 25982U 99065C   20028.38343763 -.00000107 +00000-0 +12305-4 0  9998
2 25982 045.0195 349.0518 0007954 316.1495 043.8719 14.32058535052562
Source of the keplerian elements: AFSPC